Back to catalog

STARLINK-36519

AliveCommunicationsVLEO
NORAD 67449·PAYLOAD·🇺🇸 United States

Launched Jan 14, 2026 from Cape Canaveral Space Force Station

Loading…

Next Passes (next 24 hours)

TLE

FreshSource: CelesTrak SupGP

Epoch: Sep 14, 2026, 20:53 UTC

1 67449C 26008E   26257.87062500  .00038961  00000+0  14114-2 0  2572
2 67449  43.0027 216.9746 0001381 259.5077  89.4446 15.27553172    15

Track STARLINK-36519 in real time with AllMySat

Download on the App Store